This demonstration page uses our WeatherBlox Daily Observations layout. Learn more.

Left ArrowRight Arrow

53.62937, 11.41316

Hourly Observations for August 16, 2022

Temp ( °F °C ) Dew Point ( °F °C ) Humidity (%) Winds ( mph kmh ) Pressure ( in mb ) Visibility ( mi km ) Precip ( " mm )
12:20 am 00:20 Mostly Cloudy 68 20 64 18 88 88 VRB 2 4 29.67 1005 6 10 0.00 0.00
12:50 am 00:50 Cloudy 68 20 64 18 88 88 SSW 3 6 29.67 1005 6 10 0.00 0.00
1:20 am 01:20 Mostly Cloudy 68 20 64 18 88 88 SSW 5 7 29.67 1005 6 10 0.00 0.00
1:50 am 01:50 Mostly Cloudy 68 20 64 18 88 88 S 5 7 29.67 1005 6 10 0.00 0.00
2:20 am 02:20 Mostly Cloudy 66 19 64 18 94 94 VRB 6 9 29.67 1005 6 10 0.00 0.00
2:50 am 02:50 Mostly Cloudy 66 19 64 18 94 94 VRB 5 7 29.67 1005 6 10 0.00 0.00
3:20 am 03:20 Mostly Cloudy 66 19 64 18 94 94 VRB 3 6 29.67 1005 6 10 0.00 0.00
3:50 am 03:50 Mostly Cloudy 66 19 64 18 94 94 VRB 2 4 29.67 1005 6 10 0.00 0.00
4:20 am 04:20 Partly Cloudy 66 19 64 18 94 94 SSW 3 6 29.67 1005 6 10 0.00 0.00
4:50 am 04:50 Mostly Cloudy 66 19 64 18 94 94 S 3 6 29.67 1005 6 10 0.00 0.00
5:20 am 05:20 Mostly Cloudy 66 19 64 18 94 94 VRB 2 4 29.67 1005 6 10 0.00 0.00
5:50 am 05:50 Mostly Cloudy 64 18 64 18 100 100 VRB 2 4 29.67 1005 6 10 0.00 0.00
6:20 am 06:20 Mostly Sunny 66 19 64 18 94 94 VRB 2 4 29.67 1005 6 10 0.00 0.00
6:50 am 06:50 Mostly Sunny 66 19 64 18 94 94 Calm 29.67 1005 6 9 0.00 0.00
7:20 am 07:20 Mostly Sunny 66 19 64 18 94 94 Calm 29.67 1005 6 9 0.00 0.00
7:50 am 07:50 Mostly Sunny 66 19 64 18 94 94 VRB 2 4 29.70 1006 6 10 0.00 0.00
8:20 am 08:20 Mostly Sunny 66 19 66 19 100 100 VRB 2 4 29.70 1006 6 10 0.00 0.00
8:50 am 08:50 Mostly Sunny 68 20 66 19 94 94 VRB 2 4 29.70 1006 6 10 0.00 0.00
9:20 am 09:20 Mostly Sunny 70 21 68 20 94 94 VRB 3 6 29.70 1006 6 10 0.00 0.00
9:50 am 09:50 Mostly Sunny 72 22 68 20 88 88 WSW 5 7 29.70 1006 6 10 0.00 0.00
10:20 am 10:20 Mostly Sunny 73 23 68 20 83 83 VRB 2 4 29.73 1007 6 10 0.00 0.00
10:50 am 10:50 Mostly Sunny 75 24 66 19 74 74 VRB 3 6 29.73 1007 6 10 0.00 0.00
11:20 am 11:20 Mostly Sunny 77 25 66 19 69 69 VRB 6 9 29.73 1007 6 10 0.00 0.00
11:50 am 11:50 Mostly Sunny 77 25 63 17 61 61 VRB 6 9 29.73 1007 6 10 0.00 0.00
12:20 pm 12:20 Mostly Sunny 79 26 63 17 58 58 VRB 5 7 29.73 1007 6 10 0.00 0.00
12:50 pm 12:50 Mostly Sunny 79 26 63 17 58 58 W 7 11 29.73 1007 6 10 0.00 0.00
1:20 pm 13:20 Mostly Sunny 81 27 63 17 54 54 VRB 5 7 29.76 1008 6 10 0.00 0.00
1:50 pm 13:50 Mostly Sunny 81 27 63 17 54 54 VRB 3 6 29.76 1008 6 10 0.00 0.00
2:20 pm 14:20 Mostly Sunny 82 28 63 17 51 51 VRB 3 6 29.76 1008 6 10 0.00 0.00
2:50 pm 14:50 Partly Cloudy with Showers Nearby 81 27 63 17 54 54 VRB 3 6 29.76 1008 6 10 0.00 0.00
3:20 pm 15:20 Partly Cloudy with Showers Nearby 81 27 63 17 54 54 VRB 5 7 29.76 1008 6 10 0.00 0.00
3:50 pm 15:50 Partly Cloudy with Showers Nearby 75 24 64 18 69 69 NW 8 13 29.76 1008 6 10 0.00 0.00
4:20 pm 16:20 Mostly Sunny 79 26 64 18 61 61 WNW 3 6 29.76 1008 6 10 0.00 0.00
4:50 pm 16:50 Mostly Sunny 81 27 63 17 54 54 W 6 9 29.76 1008 6 10 0.00 0.00
5:20 pm 17:20 Mostly Sunny 82 28 61 16 48 48 VRB 5 7 29.76 1008 6 10 0.00 0.00
5:50 pm 17:50 Mostly Sunny 81 27 61 16 51 51 VRB 3 6 29.76 1008 6 10 0.00 0.00
6:20 pm 18:20 Mostly Sunny 82 28 63 17 51 51 VRB 2 4 29.76 1008 6 10 0.00 0.00
6:50 pm 18:50 Mostly Sunny 81 27 61 16 51 51 VRB 2 4 29.76 1008 6 10 0.00 0.00
7:20 pm 19:20 Mostly Sunny 79 26 61 16 54 54 VRB 2 4 29.76 1008 6 10 0.00 0.00
7:50 pm 19:50 Mostly Sunny 77 25 63 17 61 61 SSW 3 6 29.79 1009 6 10 0.00 0.00
8:20 pm 20:20 Mostly Sunny 77 25 63 17 61 61 SSW 3 6 29.79 1009 6 10 0.00 0.00
8:50 pm 20:50 Mostly Clear 73 23 63 17 69 69 VRB 2 4 29.79 1009 6 10 0.00 0.00
9:20 pm 21:20 Mostly Cloudy 72 22 64 18 78 78 VRB 2 4 29.79 1009 6 10 0.00 0.00
9:50 pm 21:50 Cloudy 72 22 64 18 78 78 VRB 2 4 29.82 1010 6 10 0.00 0.00
10:20 pm 22:20 Cloudy 72 22 64 18 78 78 VRB 1 2 29.82 1010 6 10 0.00 0.00
10:50 pm 22:50 Cloudy 70 21 64 18 83 83 VRB 1 2 29.82 1010 6 10 0.00 0.00
11:20 pm 23:20 Cloudy 70 21 64 18 83 83 ENE 2 4 29.82 1010 6 10 0.00 0.00
11:50 pm 23:50 Cloudy 68 20 64 18 88 88 Calm 29.82 1010 6 10 0.00 0.00

Powered by AerisWeather